User: anonymous   Login
Location: Unspecified
(0.0000°N, 0.0000°E)
Time: 18:40:52
(UTC+00:00)
Language:

Diademe D-1C - Orbit

View from above orbital plane
View from above orbital plane
View from above satellite
View from above satellite

Ground track
Ground track

The orbit data is extracted from the following two-line orbital elements,

1 02674U 67011A   17267.74790053  .00000195  00000-0  48678-4 0  9994
2 02674  39.9257  22.1669 0268352  15.0662 345.7920 14.54408608623863
Epoch (UTC): 24 September 2017 17:56:58
Eccentricity: 0.0268352
inclination: 39.9257°
perigee height: 521 km
apogee height: 901 km
right ascension of ascending node: 22.1669°
argument of perigee: 15.0662°
revolutions per day: 14.54408608
mean anomaly at epoch: 345.7920°
orbit number at epoch: 62386

The dashed part of the orbit path shows where the satellite is in the earth's shadow,  

DLR